When you browse on this site, cookies collect data to enhance your experience and personalize the content and advertising you see.
Visit our Privacy Policy to learn more. By continuing to use the site, you agree to this use of cookies and data.
  • In Sweden
  • List of Countries
  • For 7 days
  • Water Temperature
  • Weather Map
  • Weather Widgets
  • user-avatar
    Login

    Hourly Weather Serowe

    Today, 19 August, Monday

    Time Temperature Precipitation Wind Pressure Humidity
    00:00 +12°C° 0 mm 2 mps 671 mmHg 67%
    01:00 +10°C° 0 mm 2 mps 671 mmHg 71%
    02:00 +10°C° 0 mm 2 mps 671 mmHg 74%
    03:00 +10°C° 0 mm 2 mps 670 mmHg 78%
    04:00 +9°C° 0 mm 2 mps 670 mmHg 82%
    05:00 +9°C° 0 mm 1 mps 670 mmHg 87%
    06:00 +11°C° 0 mm 1 mps 670 mmHg 81%
    07:00 +12°C° 0 mm 1 mps 671 mmHg 76%
    08:00 +14°C° 0 mm 1 mps 672 mmHg 69%
    09:00 +17°C° 0 mm 2 mps 673 mmHg 54%
    10:00 +21°C° 0 mm 3 mps 673 mmHg 39%
    11:00 +25°C° 0 mm 3 mps 673 mmHg 24%
    12:00 +26°C° 0 mm 3 mps 673 mmHg 20%
    13:00 +27°C° 0 mm 3 mps 672 mmHg 16%
    14:00 +28°C° 0 mm 3 mps 672 mmHg 14%
    15:00 +28°C° 0 mm 3 mps 672 mmHg 13%
    16:00 +28°C° 0 mm 3 mps 671 mmHg 13%
    17:00 +27°C° 0 mm 3 mps 671 mmHg 13%
    18:00 +24°C° 0 mm 2 mps 671 mmHg 17%
    19:00 +20°C° 0 mm 2 mps 670 mmHg 21%
    20:00 +17°C° 0 mm 2 mps 670 mmHg 25%
    21:00 +16°C° 0 mm 1 mps 670 mmHg 26%
    22:00 +15°C° 0 mm 1 mps 670 mmHg 28%
    23:00 +14°C° 0 mm 1 mps 670 mmHg 30%

    Tomorrow, 20 August, Tuesday

    Time Temperature Precipitation Wind Pressure Humidity
    00:00 +14°C° 0 mm 1 mps 670 mmHg 30%
    01:00 +15°C° 0 mm 1 mps 670 mmHg 29%
    02:00 +15°C° 0 mm 1 mps 670 mmHg 29%
    03:00 +14°C° 0 mm 1 mps 669 mmHg 29%
    04:00 +14°C° 0 mm 1 mps 669 mmHg 29%
    05:00 +13°C° 0 mm 1 mps 669 mmHg 29%
    06:00 +15°C° 0 mm 1 mps 670 mmHg 26%
    07:00 +16°C° 0 mm 1 mps 671 mmHg 23%
    08:00 +19°C° 0 mm 1 mps 672 mmHg 20%
    09:00 +21°C° 0 mm 2 mps 673 mmHg 18%
    10:00 +24°C° 0 mm 3 mps 674 mmHg 16%
    11:00 +27°C° 0 mm 4 mps 674 mmHg 13%
    12:00 +28°C° 0 mm 5 mps 674 mmHg 14%
    13:00 +28°C° 0 mm 5 mps 673 mmHg 16%
    14:00 +29°C° 0 mm 6 mps 673 mmHg 17%
    15:00 +27°C° 0 mm 6 mps 673 mmHg 23%
    16:00 +26°C° 0 mm 7 mps 672 mmHg 29%
    17:00 +24°C° 0 mm 7 mps 672 mmHg 35%
    18:00 +21°C° 0 mm 7 mps 672 mmHg 46%
    19:00 +19°C° 0 mm 6 mps 672 mmHg 56%
    20:00 +15°C° 0 mm 6 mps 673 mmHg 66%
    21:00 +14°C° 0 mm 6 mps 673 mmHg 72%
    22:00 +13°C° 0 mm 5 mps 673 mmHg 77%
    23:00 +12°C° 0 mm 5 mps 673 mmHg 82%

    Day after tomorrow, 21 August, Wednesday

    Time Temperature Precipitation Wind Pressure Humidity
    00:00 +12°C° 0 mm 4 mps 673 mmHg 86%
    01:00 +11°C° 0 mm 4 mps 673 mmHg 89%
    02:00 +10°C° 0 mm 4 mps 672 mmHg 93%
    03:00 +10°C° 0 mm 5 mps 673 mmHg 92%
    04:00 +10°C° 0 mm 5 mps 673 mmHg 92%
    05:00 +10°C° 0 mm 6 mps 673 mmHg 91%
    06:00 +10°C° 0 mm 6 mps 674 mmHg 88%
    07:00 +10°C° 0 mm 6 mps 674 mmHg 85%
    08:00 +11°C° 0 mm 6 mps 675 mmHg 82%
    09:00 +14°C° 0 mm 6 mps 675 mmHg 70%
    10:00 +16°C° 0 mm 6 mps 675 mmHg 58%
    11:00 +19°C° 0 mm 6 mps 676 mmHg 46%
    12:00 +21°C° 0 mm 6 mps 675 mmHg 40%
    13:00 +22°C° 0 mm 6 mps 675 mmHg 34%
    14:00 +24°C° 0 mm 6 mps 674 mmHg 28%
    15:00 +23°C° 0 mm 6 mps 674 mmHg 28%
    16:00 +23°C° 0 mm 6 mps 673 mmHg 28%
    17:00 +22°C° 0 mm 6 mps 673 mmHg 28%
    18:00 +19°C° 0 mm 5 mps 673 mmHg 34%
    19:00 +17°C° 0 mm 4 mps 673 mmHg 40%
    20:00 +13°C° 0 mm 3 mps 673 mmHg 46%
    21:00 +13°C° 0 mm 3 mps 673 mmHg 50%
    22:00 +12°C° 0 mm 3 mps 673 mmHg 55%
    23:00 +11°C° 0 mm 3 mps 673 mmHg 59%

    22 August, Thursday

    Time Temperature Precipitation Wind Pressure Humidity
    00:00 +10°C° 0 mm 2 mps 673 mmHg 66%
    01:00 +9°C° 0 mm 2 mps 673 mmHg 73%
    02:00 +8°C° 0 mm 2 mps 672 mmHg 80%
    03:00 +8°C° 0 mm 2 mps 672 mmHg 83%
    04:00 +7°C° 0 mm 2 mps 672 mmHg 86%
    05:00 +8°C° 0 mm 1 mps 672 mmHg 89%
    06:00 +8°C° 0 mm 2 mps 672 mmHg 84%
    07:00 +10°C° 0 mm 3 mps 673 mmHg 79%
    08:00 +11°C° 0 mm 3 mps 673 mmHg 73%
    09:00 +14°C° 0 mm 4 mps 674 mmHg 61%
    10:00 +18°C° 0 mm 4 mps 674 mmHg 49%
    11:00 +21°C° 0 mm 4 mps 675 mmHg 37%
    12:00 +22°C° 0 mm 4 mps 674 mmHg 33%
    13:00 +25°C° 0 mm 4 mps 674 mmHg 29%
    14:00 +26°C° 0 mm 4 mps 673 mmHg 24%
    15:00 +26°C° 0 mm 4 mps 673 mmHg 24%
    16:00 +25°C° 0 mm 4 mps 672 mmHg 24%
    17:00 +25°C° 0 mm 4 mps 672 mmHg 24%
    18:00 +21°C° 0 mm 3 mps 672 mmHg 31%
    19:00 +18°C° 0 mm 2 mps 671 mmHg 38%
    20:00 +16°C° 0 mm 2 mps 671 mmHg 45%
    21:00 +15°C° 0 mm 1 mps 671 mmHg 48%
    22:00 +14°C° 0 mm 1 mps 671 mmHg 51%
    23:00 +13°C° 0 mm 1 mps 671 mmHg 54%

    23 August, Friday

    Time Temperature Precipitation Wind Pressure Humidity
    00:00 +13°C° 0 mm 1 mps 671 mmHg 56%
    01:00 +12°C° 0 mm 1 mps 670 mmHg 59%
    02:00 +12°C° 0 mm 1 mps 670 mmHg 61%
    03:00 +11°C° 0 mm 1 mps 670 mmHg 63%
    04:00 +10°C° 0 mm 0 mps 670 mmHg 66%
    05:00 +9°C° 0 mm 0 mps 670 mmHg 68%
    06:00 +11°C° 0 mm 0 mps 671 mmHg 61%
    07:00 +13°C° 0 mm 1 mps 672 mmHg 54%
    08:00 +15°C° 0 mm 1 mps 673 mmHg 47%
    09:00 +19°C° 0 mm 1 mps 673 mmHg 39%
    10:00 +21°C° 0 mm 2 mps 674 mmHg 31%
    11:00 +25°C° 0 mm 3 mps 674 mmHg 23%
    12:00 +27°C° 0 mm 3 mps 674 mmHg 20%
    13:00 +28°C° 0 mm 4 mps 673 mmHg 17%
    14:00 +29°C° 0 mm 5 mps 672 mmHg 13%
    15:00 +29°C° 0 mm 5 mps 672 mmHg 13%
    16:00 +28°C° 0 mm 5 mps 672 mmHg 13%
    17:00 +28°C° 0 mm 5 mps 672 mmHg 13%
    18:00 +25°C° 0 mm 4 mps 671 mmHg 19%
    19:00 +20°C° 0 mm 3 mps 671 mmHg 24%
    20:00 +17°C° 0 mm 2 mps 671 mmHg 29%
    21:00 +16°C° 0 mm 2 mps 671 mmHg 32%
    22:00 +15°C° 0 mm 2 mps 671 mmHg 35%
    23:00 +14°C° 0 mm 2 mps 671 mmHg 38%

    24 August, Saturday

    Time Temperature Precipitation Wind Pressure Humidity
    00:00 +14°C° 0 mm 2 mps 671 mmHg 41%
    01:00 +13°C° 0 mm 2 mps 671 mmHg 44%
    02:00 +12°C° 0 mm 2 mps 671 mmHg 48%
    03:00 +10°C° 0 mm 2 mps 671 mmHg 49%
    04:00 +11°C° 0 mm 1 mps 671 mmHg 51%
    05:00 +10°C° 0 mm 1 mps 671 mmHg 53%
    06:00 +10°C° 0 mm 2 mps 671 mmHg 49%
    07:00 +13°C° 0 mm 2 mps 672 mmHg 44%
    08:00 +15°C° 0 mm 2 mps 673 mmHg 40%
    09:00 +18°C° 0 mm 3 mps 673 mmHg 33%
    10:00 +21°C° 0 mm 4 mps 674 mmHg 26%
    11:00 +25°C° 0 mm 5 mps 675 mmHg 19%
    12:00 +26°C° 0 mm 5 mps 674 mmHg 16%
    13:00 +27°C° 0 mm 6 mps 673 mmHg 13%
    14:00 +28°C° 0 mm 6 mps 673 mmHg 11%
    15:00 +28°C° 0 mm 6 mps 672 mmHg 11%
    16:00 +27°C° 0 mm 6 mps 672 mmHg 12%
    17:00 +27°C° 0 mm 5 mps 672 mmHg 12%
    18:00 +23°C° 0 mm 4 mps 672 mmHg 16%
    19:00 +19°C° 0 mm 4 mps 671 mmHg 20%
    20:00 +16°C° 0 mm 3 mps 671 mmHg 24%
    21:00 +16°C° 0 mm 2 mps 671 mmHg 27%
    22:00 +15°C° 0 mm 2 mps 671 mmHg 29%
    23:00 +14°C° 0 mm 2 mps 671 mmHg 31%
    Show more